Location: Владивосток
(43.1151°N, 131.8856°E)
Time: 11:08:09
(UTC+10:00)

CAS-4B - Visible Passes

Search period start: 18 April 2024 00:00
Search period end: 28 April 2024 00:00
Orbit: 479 x 498 km, 43.0° (Epoch: 17 April)

Date Brightness Start Highest point End Pass type
(mag) Time Alt. Az. Time Alt. Az. Time Alt. Az.
18 Apr ? 04:00:38 17° SE 04:00:38 17° SE 04:02:20 10° ESE visible
18 Apr ? 05:34:59 13° WSW 05:38:16 59° SSE 05:42:04 10° E visible
19 Apr ? 03:35:51 13° ESE 03:35:51 13° ESE 03:36:28 10° ESE visible
19 Apr ? 05:10:11 23° SW 05:12:23 59° SSE 05:16:11 10° E visible
20 Apr ? 04:45:18 39° SW 04:46:28 59° SSE 04:50:16 10° E visible
21 Apr ? 04:20:21 58° S 04:20:30 59° SSE 04:24:16 10° E visible
22 Apr ? 03:55:20 45° ESE 03:55:20 45° ESE 03:58:15 10° E visible
22 Apr ? 05:29:40 10° W 05:33:29 89° N 05:37:20 10° E visible
23 Apr ? 03:30:17 27° E 03:30:17 27° E 03:32:10 10° E visible
23 Apr ? 05:04:36 18° W 05:07:25 89° N 05:11:16 10° E visible
24 Apr ? 03:05:11 16° E 03:05:11 16° E 03:06:02 10° E visible
24 Apr ? 04:39:31 30° W 04:41:17 89° N 04:45:07 10° E visible
25 Apr ? 04:14:26 59° W 04:15:06 89° N 04:18:57 10° E visible
26 Apr ? 03:49:21 67° E 03:49:21 67° E 03:52:42 10° E visible
26 Apr ? 05:24:07 10° W 05:27:51 55° SSW 05:31:36 10° ESE visible
27 Apr ? 03:24:20 31° E 03:24:20 31° E 03:26:25 10° E visible
27 Apr ? 04:58:40 16° W 05:01:34 55° SSW 05:05:19 10° ESE visible
